GW0458 Weather Reports


time (UTC)temp
F
wind
direction
speed
knots
gust
knots
rain 1hr
in
rain 24hr
in
rain mn
in
humidity
%
barometer
mb
20260504044425 67 202 0.0 0.0 0.00 0.00 0.00 64 1016.8
20260504041423 68 204 0.0 0.0 0.00 0.00 0.00 62 1016.7
20260504034423 70 208 0.0 0.0 0.00 0.00 0.00 57 1016.3
20260504031422 73 215 0.9 0.9 0.00 0.00 0.00 52 1016.2
20260504024419 75 241 0.9 1.7 0.00 0.00 0.00 48 1016.1
20260504021417 76 225 1.7 1.7 0.00 0.00 0.00 47 1016.1
20260504014413 78 223 0.9 0.9 0.00 0.00 0.00 47 1016.1
20260504011413 80 219 0.0 0.0 0.00 0.00 0.00 45 1016.4
20260504004410 82 247 0.9 1.7 0.00 0.00 0.00 43 1016.8
20260504001410 80 237 0.0 0.9 0.00 0.00 0.00 47 1016.8
20260503234405 79 205 0.0 0.0 0.00 0.00 0.00 47 1017.2
20260503231405 79 271 0.9 0.9 0.00 0.00 0.00 47 1017.6
20260503224402 82 192 1.7 1.7 0.00 0.00 0.00 44 1018.4
20260503221400 83 260 1.7 2.6 0.00 0.00 0.00 42 1018.5
20260503214358 81 236 1.7 2.6 0.00 0.00 0.00 43 1018.8
20260503211353 82 214 1.7 1.7 0.00 0.00 0.00 43 1019.2
20260503204349 83 240 0.9 1.7 0.00 0.00 0.00 43 1019.5
20260503201345 82 242 2.6 4.3 0.00 0.00 0.00 44 1019.9
20260503194343 82 231 2.6 2.6 0.00 0.00 0.00 45 1020.1
20260503191338 77 209 0.9 1.7 0.00 0.00 0.00 52 1020.6
20260503184338 76 262 2.6 2.6 0.00 0.00 0.00 54 1020.7
20260503181333 75 229 0.9 1.7 0.00 0.00 0.00 57 1021.0
20260503174333 72 254 1.7 1.7 0.00 0.00 0.00 59 1021.4
20260503171329 72 217 0.9 0.9 0.00 0.00 0.00 59 1021.4
20260503131319 50 203 0.0 0.0 0.00 0.00 0.00 98 1021.9
20260503081254 57 198 0.0 0.0 0.00 0.00 0.00 81 1022.0
20260503071249 61 206 0.0 0.0 0.00 0.00 0.00 68 1022.0